TimeEST,TemperatureF,Dew PointF,Humidity,Sea Level PressureIn,VisibilityMPH,Wind Direction,Wind SpeedMPH,Gust SpeedMPH,PrecipitationIn,Events,Conditions,WindDirDegrees,DateUTC
12:15 AM,45.0,44.6,99,29.71,4.0,WNW,16.1,21.9,N/A,,Overcast,300,2012-12-10 05:15:00
12:35 AM,43.9,43.3,98,29.72,4.0,WNW,15.0,-,N/A,,Overcast,290,2012-12-10 05:35:00
12:55 AM,42.4,41.9,98,29.72,7.0,WNW,16.1,27.6,N/A,,Overcast,300,2012-12-10 05:55:00
1:35 AM,41.0,40.1,97,29.72,4.0,WNW,16.1,20.7,N/A,,Overcast,290,2012-12-10 06:35:00
1:55 AM,40.5,39.6,97,29.73,7.0,West,17.3,23.0,N/A,,Overcast,280,2012-12-10 06:55:00
2:15 AM,40.1,38.8,95,29.73,10.0,WNW,18.4,23.0,N/A,,Overcast,290,2012-12-10 07:15:00
2:35 AM,39.6,38.3,95,29.72,7.0,WNW,16.1,-,N/A,,Overcast,290,2012-12-10 07:35:00
2:55 AM,39.4,38.1,95,29.73,7.0,West,21.9,-,N/A,,Overcast,280,2012-12-10 07:55:00
3:15 AM,39.2,37.4,93,29.73,10.0,West,17.3,23.0,N/A,,Overcast,280,2012-12-10 08:15:00
3:35 AM,39.2,37.4,93,29.73,7.0,WNW,13.8,-,N/A,,Overcast,290,2012-12-10 08:35:00
3:55 AM,38.7,36.3,91,29.74,7.0,WNW,17.3,23.0,N/A,,Overcast,290,2012-12-10 08:55:00
4:15 AM,38.1,34.0,85,29.74,7.0,WNW,16.1,21.9,N/A,,Overcast,290,2012-12-10 09:15:00
4:35 AM,37.9,34.2,86,29.73,10.0,WNW,16.1,-,N/A,,Overcast,290,2012-12-10 09:35:00
4:55 AM,37.8,34.7,89,29.73,10.0,West,15.0,-,N/A,,Overcast,280,2012-12-10 09:55:00
5:15 AM,37.8,34.7,89,29.73,5.0,West,11.5,-,N/A,,Overcast,270,2012-12-10 10:15:00
5:35 AM,37.6,34.3,88,29.72,10.0,West,11.5,-,N/A,,Mostly Cloudy,270,2012-12-10 10:35:00
5:55 AM,37.4,34.5,89,29.71,5.0,West,11.5,-,N/A,,Overcast,280,2012-12-10 10:55:00
6:15 AM,37.4,34.7,90,29.71,10.0,West,10.4,-,N/A,,Overcast,280,2012-12-10 11:15:00
6:35 AM,37.4,34.7,90,29.71,7.0,West,8.1,-,N/A,,Overcast,270,2012-12-10 11:35:00
6:55 AM,37.4,34.9,91,29.71,10.0,West,9.2,-,N/A,,Overcast,270,2012-12-10 11:55:00
7:15 AM,37.4,34.9,91,29.71,7.0,West,11.5,17.3,N/A,,Overcast,270,2012-12-10 12:15:00
7:35 AM,35.8,33.3,91,29.73,7.0,WNW,16.1,24.2,N/A,,Overcast,300,2012-12-10 12:35:00
7:55 AM,33.8,32.0,93,29.74,7.0,WNW,12.7,-,N/A,,Overcast,290,2012-12-10 12:55:00
8:15 AM,32.7,31.3,94,29.75,10.0,West,17.3,23.0,N/A,,Overcast,280,2012-12-10 13:15:00
8:35 AM,32.2,30.6,94,29.75,5.0,West,17.3,-,N/A,,Overcast,280,2012-12-10 13:35:00
8:55 AM,32.0,30.4,94,29.76,4.0,WNW,16.1,24.2,N/A,,Overcast,300,2012-12-10 13:55:00
9:15 AM,32.0,29.7,91,29.76,7.0,West,15.0,18.4,N/A,,Overcast,280,2012-12-10 14:15:00
9:35 AM,31.5,29.3,92,29.76,7.0,WNW,13.8,20.7,N/A,,Overcast,290,2012-12-10 14:35:00
9:55 AM,30.9,28.8,92,29.76,7.0,West,17.3,21.9,N/A,,Overcast,280,2012-12-10 14:55:00
10:15 AM,30.4,27.7,90,29.77,7.0,West,17.3,-,N/A,,Overcast,270,2012-12-10 15:15:00
10:55 AM,30.7,28.4,91,29.78,3.0,WNW,16.1,23.0,N/A,,Overcast,290,2012-12-10 15:55:00
11:15 AM,30.6,28.0,90,29.78,4.0,WNW,17.3,20.7,N/A,,Overcast,290,2012-12-10 16:15:00
11:35 AM,30.2,27.9,91,29.78,3.0,WNW,16.1,19.6,N/A,,Overcast,300,2012-12-10 16:35:00
11:55 AM,30.2,27.5,90,29.77,5.0,WNW,16.1,20.7,N/A,,Overcast,290,2012-12-10 16:55:00
12:15 PM,30.2,27.5,90,29.77,7.0,WNW,15.0,21.9,N/A,,Overcast,290,2012-12-10 17:15:00
12:35 PM,30.2,27.0,88,29.77,7.0,WNW,13.8,19.6,N/A,,Overcast,300,2012-12-10 17:35:00
12:55 PM,30.2,26.8,87,29.76,7.0,WNW,13.8,-,N/A,,Overcast,300,2012-12-10 17:55:00
1:15 PM,30.4,26.8,86,29.76,7.0,NW,16.1,21.9,N/A,,Overcast,310,2012-12-10 18:15:00
1:35 PM,30.4,27.3,88,29.76,5.0,WNW,13.8,20.7,N/A,,Overcast,290,2012-12-10 18:35:00
1:55 PM,30.2,27.9,91,29.76,7.0,WNW,16.1,-,N/A,,Overcast,290,2012-12-10 18:55:00
2:15 PM,30.2,27.7,90,29.77,7.0,WNW,11.5,20.7,N/A,,Overcast,300,2012-12-10 19:15:00
2:35 PM,30.2,27.7,90,29.78,7.0,WNW,15.0,-,N/A,,Overcast,290,2012-12-10 19:35:00
2:55 PM,30.2,27.7,90,29.78,5.0,West,15.0,-,N/A,,Overcast,280,2012-12-10 19:55:00
3:15 PM,30.2,28.0,92,29.77,4.0,WNW,16.1,21.9,N/A,,Overcast,290,2012-12-10 20:15:00
3:35 PM,30.0,28.0,92,29.77,1.8,WNW,11.5,18.4,N/A,Snow,Light Snow,290,2012-12-10 20:35:00
3:55 PM,30.0,28.2,93,29.77,3.0,West,11.5,-,N/A,,Overcast,280,2012-12-10 20:55:00
4:15 PM,30.2,28.4,93,29.77,3.0,West,12.7,-,N/A,,Overcast,280,2012-12-10 21:15:00
4:35 PM,30.0,28.2,93,29.78,7.0,WNW,13.8,-,N/A,,Overcast,290,2012-12-10 21:35:00
4:55 PM,30.2,28.0,92,29.79,5.0,WNW,13.8,-,N/A,,Overcast,290,2012-12-10 21:55:00
5:15 PM,30.2,28.0,92,29.80,4.0,West,12.7,-,N/A,,Overcast,280,2012-12-10 22:15:00
5:35 PM,30.2,28.4,93,29.80,3.0,WNW,16.1,20.7,N/A,,Overcast,290,2012-12-10 22:35:00
5:55 PM,30.2,28.4,93,29.80,5.0,WNW,12.7,-,N/A,,Overcast,300,2012-12-10 22:55:00
6:15 PM,30.2,28.4,93,29.82,7.0,West,10.4,19.6,N/A,,Overcast,280,2012-12-10 23:15:00
6:35 PM,30.4,28.6,93,29.82,4.0,WNW,13.8,-,N/A,Snow,Light Snow,290,2012-12-10 23:35:00
6:55 PM,30.6,28.6,92,29.83,4.0,WNW,13.8,18.4,N/A,,Overcast,290,2012-12-10 23:55:00
7:15 PM,30.7,29.1,94,29.84,3.0,WNW,12.7,-,N/A,Snow,Light Snow,290,2012-12-11 00:15:00
7:35 PM,30.9,29.3,94,29.84,2.5,WNW,9.2,-,N/A,Snow,Light Snow,290,2012-12-11 00:35:00
7:55 PM,30.9,29.7,95,29.85,2.5,WNW,10.4,-,N/A,Snow,Light Snow,290,2012-12-11 00:55:00
8:15 PM,31.1,30.0,96,29.86,3.0,WNW,10.4,-,N/A,,Overcast,290,2012-12-11 01:15:00
8:35 PM,31.1,30.0,96,29.87,3.0,WNW,11.5,-,N/A,,Overcast,290,2012-12-11 01:35:00
8:55 PM,31.1,30.0,96,29.88,2.5,WNW,10.4,-,N/A,Snow,Light Snow,290,2012-12-11 01:55:00
9:15 PM,31.1,30.2,96,29.88,1.8,WNW,11.5,-,N/A,Snow,Light Snow,290,2012-12-11 02:15:00
9:35 PM,31.1,30.2,96,29.88,2.5,WNW,9.2,-,N/A,Snow,Light Snow,290,2012-12-11 02:35:00
9:55 PM,31.1,30.2,96,29.89,3.0,WNW,12.7,-,N/A,Snow,Light Snow,290,2012-12-11 02:55:00
10:15 PM,31.1,30.2,96,29.89,4.0,WNW,11.5,-,N/A,,Overcast,300,2012-12-11 03:15:00
10:35 PM,31.3,30.2,96,29.90,4.0,WNW,11.5,18.4,N/A,Snow,Light Snow,290,2012-12-11 03:35:00
10:55 PM,30.9,30.0,96,29.91,4.0,WNW,11.5,-,N/A,,Overcast,300,2012-12-11 03:55:00
11:15 PM,30.9,30.0,96,29.91,4.0,West,10.4,-,N/A,Snow,Light Snow,280,2012-12-11 04:15:00
11:35 PM,30.9,29.8,96,29.92,4.0,WNW,12.7,-,N/A,Snow,Light Snow,290,2012-12-11 04:35:00
11:55 PM,30.9,29.7,95,29.92,4.0,West,15.0,-,N/A,Snow,Light Snow,280,2012-12-11 04:55:00